This is the latest recevied weather packets stored in our database for station/object R2AKT-13. If no packets are shown the sender has not sent any weather packets the latest 1 day(s).
| Time | Temp. | Humidity | Pressure | Rain* | Wind** | Luminosity | Snow |
|---|---|---|---|---|---|---|---|
| 1778040199 | 16.67° C | 60% | 983 hPa | - | 0 m/s | - | - |
| 1778039714 | 16.11° C | 66% | 982.9 hPa | - | 0 m/s | - | - |
| 1778038619 | 17.22° C | 56% | 982.8 hPa | - | 0 m/s | - | - |
| 1778038109 | 17.22° C | 59% | 982.7 hPa | - | 0 m/s | - | - |
| 1778037529 | 17.78° C | 56% | 982.7 hPa | - | 0 m/s | - | - |
| 1778036469 | 17.22° C | 54% | 982.8 hPa | - | 0 m/s | - | - |
| 1778035919 | 17.22° C | 55% | 982.9 hPa | - | 0 m/s | - | - |
| 1778035364 | 16.11° C | 59% | 983.1 hPa | - | 0.45 m/s, 315° | - | - |
| 1778034854 | 16.11° C | 62% | 983.3 hPa | - | 0 m/s | - | - |
| 1778034274 | 16.11° C | 62% | 983.2 hPa | - | 0 m/s | - | - |
| 1778033689 | 16.11° C | 61% | 983.1 hPa | - | 0 m/s | - | - |
| 1778033124 | 16.11° C | 63% | 983.1 hPa | - | 0 m/s | - | - |
| 1778031999 | 16.11° C | 62% | 983.1 hPa | - | 0 m/s | - | - |
| 1778031474 | 16.11° C | 64% | 983.1 hPa | - | 0.45 m/s, 311° | - | - |
| 1778030949 | 16.11° C | 66% | 983.2 hPa | - | 0 m/s | - | - |
| 1778030459 | 16.67° C | 64% | 983.2 hPa | - | 0.45 m/s, 286° | - | - |
| 1778029929 | 16.11° C | 62% | 983.1 hPa | - | 0.45 m/s, 278° | - | - |
| 1778028309 | 16.67° C | 61% | 983 hPa | - | 0 m/s | - | - |
| 1778027724 | 16.67° C | 61% | 983.1 hPa | - | 0.45 m/s, 276° | - | - |
| 1778026664 | 16.67° C | 62% | 983 hPa | - | 0 m/s | - | - |
| 1778025009 | 16.67° C | 62% | 983 hPa | - | 0.45 m/s, 206° | - | - |
| 1778024509 | 16.67° C | 61% | 982.9 hPa | - | 0 m/s | - | - |
| 1778022229 | 16.67° C | 62% | 983.3 hPa | - | 0.45 m/s, 217° | - | - |
| 1778020054 | 16.67° C | 63% | 983.4 hPa | - | 0 m/s | - | - |
| 1778018529 | 16.67° C | 62% | 983.5 hPa | - | 0.45 m/s, 226° | - | - |
* Rain since midnight (hover to see other rain measurements)
** Current wind speed in m/s (hover to see current wind gust speed)